Regional Weather Roundup
Issued by NWS Mt. Holly, NJ

Home | Current Version | Previous Version | Text Only | Print | Product List | Glossary On
Versions: 1 2 3 4 5 6 7 8 9 10 11 12 13 14 15 16 17 18 19 20 21 22 23 24 25 26 27 28 29 30 31 32 33 34 35 36 37 38 39 40 41 42 43 44 45 46 47 48 49 50
000
ASUS41 KPHI 211710
RWRPHI

REGIONAL WEATHER ROUNDUP
NATIONAL WEATHER SERVICE MOUNT HOLLY NJ
1200 PM EST SUN DEC 21 2014

NOTE:  "FAIR" INDICATES FEW OR NO CLOUDS BELOW 12,000 FEET WITH NO
SIGNIFICANT WEATHER AND/OR OBSTRUCTIONS TO VISIBILITY.

 * = STATION DOES NOT REPORT PRECIPITATION (E.G. RAIN, SNOW, ETC.)
        OR FOG.

NJZ015>026-211800-
SOUTHERN NEW JERSEY

CITY           SKY/WX    TMP DP  RH WIND       PRES   REMARKS
POMONA         SUNNY     39  22  50 N8        30.30F WCI  33
RIO GRANDE*    CLOUDY    36  23  60 N7        30.30F WCI  30
MILLVILLE      SUNNY     38  23  55 NW9       30.31F WCI  31
WRIGHTSTOWN    PTSUNNY   38  24  57 NW12      30.28F WCI  30
MOUNT HOLLY    SUNNY     38  22  52 NW8       30.31F WCI  32
TRENTON        CLOUDY    35  22  58 N7        30.30F WCI  29

$$
NJZ001>014-211800-
NORTHERN NEW JERSEY

CITY           SKY/WX    TMP DP  RH WIND       PRES   REMARKS
SUSSEX         CLOUDY    32  27  81 CALM      30.29F
ANDOVER*         N/A     32  25  75 N6        30.30F WCI  26
MORRISTOWN     CLOUDY    34  27  75 N6        30.31F WCI  29
NEWARK         CLOUDY    34  27  75 NW8       30.31F WCI  27
TETERBORO      CLOUDY    34  26  72 NW6       30.30F WCI  29
CALDWELL       CLOUDY    32  25  75 NW6       30.31F WCI  26
SOMERVILLE     CLOUDY    35  25  66 N7        30.30F WCI  29
ALLAIRE*       CLOUDY    36  21  55 NW9       30.29F WCI  29
TOMS RIVER*    PTSUNNY   36  25  64 N12       30.30F WCI  27

$$
PAZ043-044-047-054-055-060>062-066>071-211800-
EASTERN PENNSYLVANIA

CITY           SKY/WX    TMP DP  RH WIND       PRES   REMARKS
PHILADELPHIA   MOSUNNY   39  21  48 VRB7      30.33F WCI  34
NORTH PHILA    MOSUNNY   39  20  46 N12       30.33F WCI  32
BLUE BELL      PTSUNNY   37  25  60 N7        30.31F WCI  32
DOYLESTOWN     PTSUNNY   34  22  61 N7        30.30F WCI  28
QUAKERTOWN*    CLOUDY    32  21  64 NW7       30.31F WCI  26
POTTSTOWN      CLOUDY    35  23  61 N7        30.33F WCI  29
LANCASTER      CLOUDY    33  21  61 N8        30.32F WCI  26
COATESVILLE    MOSUNNY   36  25  64 NW10      30.31F WCI  28
READING        CLOUDY    34  22  61 NW10      30.32F WCI  26
ALLENTOWN      CLOUDY    34  20  56 NW6       30.32F WCI  29
MOUNT POCONO   CLOUDY    26  19  74 NW8       30.23S WCI  18
HAZLETON       CLOUDY    28  19  69 NW6       30.28F WCI  22
WILKES BARRE   CLOUDY    31  19  61 N6        30.28F WCI  25

$$
DEZALL-MDZ008-012-015-019-020-211800-
DELAWARE AND EASTERN MARYLAND

CITY           SKY/WX    TMP DP  RH WIND       PRES   REMARKS
WILMINGTON     SUNNY     39  22  50 N10       30.33F WCI  32
DOVER          CLOUDY    38  25  58 NW9       30.30F WCI  31
GEORGETOWN     CLOUDY    38  23  55 VRB6      30.33F WCI  33
EASTON         CLOUDY    39  27  60 N5        30.37F
PATUXENT       PTSUNNY   39  28  64 CALM      30.34F
OCEAN CITY     CLOUDY    40  25  55 N7        30.33F
WALLOPS ISLAND CLOUDY    40  27  59 N5        30.33F
CAMBRIDGE      MOSUNNY   37  28  70 NW5       30.33F WCI  34
SALISBURY      CLOUDY    42  25  50 NW7       30.33F

$$
PAZ001-021-NYZ056-072-MDZ011-DCZ001-211800-
OTHER NEARBY LOCATIONS

CITY           SKY/WX    TMP DP  RH WIND       PRES   REMARKS
HARRISBURG     CLOUDY    34  21  59 NW8       30.33F WCI  27
STATE COLLEGE  CLOUDY    30  21  69 CALM      30.30F
WILLIAMSPORT   CLOUDY    34  19  54 MISG      30.32F
BINGHAMTON     CLOUDY    27  20  75 N3        30.24F
NEW YORK CITY  CLOUDY    33  25  72 VRB5      30.32F WCI  29
BALTIMORE      PTSUNNY   37  22  54 W6        30.33F WCI  32
WASHINGTON DC  PTSUNNY   42  24  49 NE3       30.36F

$$


USA.gov is the U.S. government's official web portal to all federal, state and local government web resources and services.